Weather History for Reading, PA

Change the Weather History Date:

Friday, August 2, 2013

  Actual Average Record
Temperature  
Mean Temperature 75 °F 74 °F  
Max Temperature 84 °F 85 °F 102 °F (1955)
Min Temperature 65 °F 64 °F 50 °F (1976)
Degree Days  
Heating Degree Days 0 0  
Month to date heating degree days 0 0  
Since 1 June heating degree days 2 25  
Since 1 July heating degree days 0 1  
Cooling Degree Days 10 9  
Month to date cooling degree days 17 18  
Year to date cooling degree days 766 570  
Since 1 June cooling degree days 667 510  
Growing Degree Days 24 (Base 50)    
Moisture  
Dew Point 65 °F    
Average Humidity 73    
Maximum Humidity 100    
Minimum Humidity 46    
Precipitation  
Precipitation 0.00 in 0.12 in 2.62 in (1973)
Month to date precipitation 0.56 0.25  
Year to date precipitation 25.23 25.57  
Sea Level Pressure  
Sea Level Pressure 29.89 in    
Wind  
Wind Speed 4 mph (WNW)    
Max Wind Speed 15 mph    
Max Gust Speed 20 mph    
Visibility 5 miles    
Events Fog    
T = Trace of Precipitation, MM = Missing Value Source: NWS Daily Summary

Daily Weather History Graph

Daily Weather History Graph

Search for Another Location

Airport:

Trip Planner

Search our weather history database for the weather conditions in past years. The results will help you decide how hot, cold, wet, or windy it might be!

Date:

Astronomy

Aug. 02, 2013 Rise Set
Actual Time 6:02 AM EDT 8:17 PM EDT
Civil Twilight 5:32 AM EDT 8:47 PM EDT
Nautical Twilight 4:54 AM EDT 9:24 PM EDT
Astronomical Twilight 4:13 AM EDT 10:05 PM EDT
Moon 2:21 AM EDT (8/2) 5:13 PM EDT (8/2)
Length of Visible Light 15h 15m
Length of Day
14h 14m
Waning Crescent, 16% of the Moon is Illuminated
Aug 2
Waning Crescent
Aug 6
New
Aug 14
First Quarter
Aug 20
Full
Aug 28
Last Quarter

Hourly Weather History & Observations

Time (EDT) Temp. Heat Index Dew Point Humidity Pressure Visibility Wind Dir Wind Speed Gust Speed Precip Events Conditions
12:43 AM 71.6 °F - 69.8 °F 94% 29.85 in 6.0 mi NNW 4.6 mph - N/A   Mostly Cloudy
12:54 AM 71.1 °F - 69.1 °F 93% 29.86 in 5.0 mi North 4.6 mph - N/A   Mostly Cloudy
1:10 AM 71.6 °F - 69.8 °F 94% 29.85 in 6.0 mi NNW 3.5 mph - N/A   Mostly Cloudy
1:23 AM 71.6 °F - 69.8 °F 94% 29.85 in 6.0 mi North 5.8 mph - N/A   Overcast
1:54 AM 71.1 °F - 69.1 °F 93% 29.85 in 8.0 mi NE 3.5 mph - N/A   Overcast
2:54 AM 69.1 °F - 66.9 °F 93% 29.84 in 9.0 mi Calm Calm - N/A   Clear
3:16 AM 68.0 °F - 66.2 °F 94% 29.84 in 4.0 mi WNW 3.5 mph - N/A   Partly Cloudy
3:23 AM 68.0 °F - 66.2 °F 94% 29.84 in 1.5 mi North 3.5 mph - N/A   Partly Cloudy
3:25 AM 66.2 °F - 66.2 °F 100% 29.84 in 0.8 mi North 3.5 mph - N/A   Mist
3:32 AM 68.0 °F - 66.2 °F 94% 29.84 in 0.2 mi Calm Calm - N/A Fog Fog
3:49 AM 66.2 °F - 66.2 °F 100% 29.84 in 0.5 mi North 3.5 mph - N/A Fog Fog
3:54 AM 66.9 °F - 66.0 °F 97% 29.85 in 0.5 mi NNW 3.5 mph - N/A Fog Fog
4:03 AM 66.2 °F - 66.2 °F 100% 29.85 in 0.2 mi NNW 3.5 mph - N/A Fog Fog
4:33 AM 66.2 °F - 66.2 °F 100% 29.85 in 0.8 mi WNW 3.5 mph - N/A   Mist
4:42 AM 66.2 °F - 66.2 °F 100% 29.86 in 2.0 mi Calm Calm - N/A   Overcast
4:54 AM 66.0 °F - 64.9 °F 96% 29.87 in 4.0 mi Calm Calm - N/A   Mostly Cloudy
5:01 AM 66.2 °F - 64.4 °F 94% 29.86 in 2.5 mi Calm Calm - N/A   Scattered Clouds
5:07 AM 66.2 °F - 64.4 °F 94% 29.87 in 1.0 mi Calm Calm - N/A   Mist
5:18 AM 66.2 °F - 64.4 °F 94% 29.88 in 2.0 mi Calm Calm - N/A   Partly Cloudy
5:26 AM 66.2 °F - 64.4 °F 94% 29.88 in 4.0 mi West 3.5 mph - N/A   Partly Cloudy
5:40 AM 66.2 °F - 64.4 °F 94% 29.88 in 2.5 mi Calm Calm - N/A   Mostly Cloudy
5:54 AM 66.0 °F - 64.9 °F 96% 29.90 in 0.2 mi Calm Calm - N/A Fog Fog
6:23 AM 66.2 °F - 66.2 °F 100% 29.88 in 0.2 mi South 3.5 mph - N/A Fog Fog
6:44 AM 66.2 °F - 66.2 °F 100% 29.89 in 0.2 mi SW 3.5 mph - N/A Fog Fog
6:54 AM 66.9 °F - 66.0 °F 97% 29.91 in 0.2 mi Calm Calm - N/A Fog Fog
7:54 AM 66.9 °F - 66.0 °F 97% 29.93 in 2.0 mi Calm Calm - N/A   Mist
8:01 AM 68.0 °F - 66.2 °F 94% 29.92 in 2.0 mi Calm Calm - N/A   Overcast
8:11 AM 68.0 °F - 66.2 °F 94% 29.92 in 2.0 mi Calm Calm - N/A   Mostly Cloudy
8:54 AM 72.0 °F - 66.9 °F 84% 29.94 in 6.0 mi Calm Calm - N/A   Haze
9:54 AM 75.9 °F - 64.0 °F 67% 29.94 in 6.0 mi WNW 8.1 mph - N/A   Haze
10:54 AM 78.1 °F - 64.0 °F 62% 29.94 in 10.0 mi West 6.9 mph - N/A   Scattered Clouds
11:54 AM 80.1 °F 81.2 °F 62.1 °F 54% 29.93 in 10.0 mi Calm Calm - N/A   Clear
12:54 PM 82.0 °F 82.4 °F 60.1 °F 47% 29.94 in 10.0 mi WNW 8.1 mph - N/A   Clear
1:54 PM 82.0 °F 82.1 °F 59.0 °F 45% 29.93 in 10.0 mi WSW 10.4 mph - N/A   Scattered Clouds
2:54 PM 81.0 °F 81.7 °F 61.0 °F 50% 29.91 in 10.0 mi West 10.4 mph 19.6 mph N/A   Mostly Cloudy
3:54 PM 81.0 °F 81.9 °F 62.1 °F 52% 29.91 in 10.0 mi West 5.8 mph - N/A   Scattered Clouds
4:54 PM 82.0 °F 83.4 °F 64.0 °F 54% 29.91 in 10.0 mi West 6.9 mph - N/A   Partly Cloudy
5:54 PM 81.0 °F 81.7 °F 61.0 °F 50% 29.88 in 10.0 mi WSW 10.4 mph 19.6 mph N/A   Scattered Clouds
6:54 PM 79.0 °F - 62.1 °F 56% 29.90 in 10.0 mi WNW 8.1 mph - N/A   Clear
7:54 PM 77.0 °F - 59.0 °F 54% 29.91 in 10.0 mi WNW 5.8 mph - N/A   Clear
8:54 PM 71.1 °F - 63.0 °F 75% 29.93 in 10.0 mi Calm Calm - N/A   Clear
9:54 PM 72.0 °F - 59.0 °F 64% 29.95 in 10.0 mi Calm Calm - N/A   Clear
10:54 PM 72.0 °F - 57.9 °F 61% 29.95 in 10.0 mi Calm Calm - N/A   Clear
11:54 PM 70.0 °F - 57.9 °F 65% 29.94 in 10.0 mi Calm Calm - N/A   Clear